Time,TemperatureF,DewpointF,PressureIn,WindDirection,WindDirectionDegrees,WindSpeedMPH,WindSpeedGustMPH,Humidity,HourlyPrecipIn,Conditions,Clouds,dailyrainin,SoftwareType,DateUTC
2013-04-08 00:09:00,56.8,55.0,30.04,ESE,118,0.0,0.0,95,0.00,,,0.00,weatherlink.com 1.10,2013-04-08 05:09:00,
2013-04-08 00:24:00,56.8,55.0,30.04,ESE,118,0.0,0.0,95,0.00,,,0.00,weatherlink.com 1.10,2013-04-08 05:24:00,
2013-04-08 00:39:00,56.1,55.0,30.03,ESE,118,0.0,0.0,95,0.00,,,0.00,weatherlink.com 1.10,2013-04-08 05:39:00,
2013-04-08 00:54:00,55.4,54.0,30.03,ESE,118,0.0,0.0,96,0.00,,,0.00,weatherlink.com 1.10,2013-04-08 05:54:00,
2013-04-08 01:09:00,55.1,54.0,30.03,ESE,118,0.0,0.0,96,0.00,,,0.00,weatherlink.com 1.10,2013-04-08 06:09:00,
2013-04-08 01:24:00,55.0,54.0,30.03,ESE,118,0.0,0.0,96,0.00,,,0.00,weatherlink.com 1.10,2013-04-08 06:24:00,
2013-04-08 01:39:00,54.4,53.0,30.02,ESE,118,0.0,0.0,96,0.00,,,0.00,weatherlink.com 1.10,2013-04-08 06:39:00,
2013-04-08 01:54:00,54.1,53.0,30.02,ESE,118,0.0,0.0,96,0.00,,,0.00,weatherlink.com 1.10,2013-04-08 06:54:00,
2013-04-08 02:09:00,54.3,53.0,30.02,ESE,118,0.0,0.0,96,0.00,,,0.00,weatherlink.com 1.10,2013-04-08 07:09:00,
2013-04-08 02:24:00,54.8,54.0,30.02,ESE,118,0.0,0.0,96,0.00,,,0.00,weatherlink.com 1.10,2013-04-08 07:24:00,
2013-04-08 02:39:00,54.9,54.0,30.02,ESE,118,0.0,0.0,96,0.00,,,0.00,weatherlink.com 1.10,2013-04-08 07:39:00,
2013-04-08 02:54:00,56.1,55.0,30.01,ESE,117,0.0,1.0,96,0.00,,,0.00,weatherlink.com 1.10,2013-04-08 07:54:00,
2013-04-08 03:09:00,56.3,55.0,30.01,South,184,0.0,1.0,96,0.00,,,0.00,weatherlink.com 1.10,2013-04-08 08:09:00,
2013-04-08 03:24:00,56.1,55.0,30.01,South,184,0.0,0.0,96,0.00,,,0.00,weatherlink.com 1.10,2013-04-08 08:24:00,
2013-04-08 03:54:00,56.7,56.0,30.01,SE,131,0.0,0.0,96,0.00,,,0.00,weatherlink.com 1.10,2013-04-08 08:54:00,
2013-04-08 04:09:00,56.2,55.0,30.01,South,181,0.0,0.0,96,0.00,,,0.00,weatherlink.com 1.10,2013-04-08 09:09:00,
2013-04-08 04:24:00,55.5,54.0,30.02,SSE,167,0.0,0.0,96,0.00,,,0.00,weatherlink.com 1.10,2013-04-08 09:24:00,
2013-04-08 04:39:00,55.3,54.0,30.02,SSE,166,0.0,0.0,96,0.00,,,0.00,weatherlink.com 1.10,2013-04-08 09:39:00,
2013-04-08 04:55:00,55.5,54.0,30.02,SSE,167,0.0,1.0,96,0.00,,,0.00,weatherlink.com 1.10,2013-04-08 09:55:00,
2013-04-08 05:10:00,56.2,55.0,30.02,SSW,193,0.0,1.0,96,0.00,,,0.00,weatherlink.com 1.10,2013-04-08 10:10:00,
2013-04-08 05:40:00,56.2,55.0,30.03,ESE,121,0.0,1.0,96,0.00,,,0.00,weatherlink.com 1.10,2013-04-08 10:40:00,
2013-04-08 05:55:00,56.4,55.0,30.03,ENE,77,0.0,3.0,96,0.00,,,0.00,weatherlink.com 1.10,2013-04-08 10:55:00,
2013-04-08 06:10:00,56.4,55.0,30.03,NE,53,4.0,6.0,96,0.00,,,0.00,weatherlink.com 1.10,2013-04-08 11:10:00,
2013-04-08 06:25:00,56.7,56.0,30.04,ESE,110,1.0,6.0,96,0.00,,,0.00,weatherlink.com 1.10,2013-04-08 11:25:00,
2013-04-08 06:40:00,56.7,56.0,30.04,ESE,104,2.0,4.0,96,0.00,,,0.00,weatherlink.com 1.10,2013-04-08 11:40:00,
2013-04-08 07:10:00,57.2,56.0,30.05,East,89,0.0,3.0,96,0.00,,,0.00,weatherlink.com 1.10,2013-04-08 12:10:00,
2013-04-08 07:25:00,58.3,57.0,30.06,ESE,113,0.0,2.0,96,0.00,,,0.00,weatherlink.com 1.10,2013-04-08 12:25:00,
2013-04-08 07:55:00,61.7,60.0,30.07,SE,141,3.0,3.0,94,0.00,,,0.00,weatherlink.com 1.10,2013-04-08 12:55:00,
2013-04-08 08:10:00,62.8,60.0,30.07,ESE,105,4.0,6.0,91,0.00,,,0.00,weatherlink.com 1.10,2013-04-08 13:10:00,
2013-04-08 08:25:00,64.4,61.0,30.07,ESE,117,3.0,6.0,87,0.00,,,0.00,weatherlink.com 1.10,2013-04-08 13:25:00,
2013-04-08 08:40:00,66.1,62.0,30.07,East,86,1.0,6.0,85,0.00,,,0.00,weatherlink.com 1.10,2013-04-08 13:40:00,
2013-04-08 08:55:00,67.6,61.0,30.07,SSE,167,3.0,6.0,80,0.00,,,0.00,weatherlink.com 1.10,2013-04-08 13:55:00,
2013-04-08 09:10:00,69.0,61.0,30.08,SE,129,2.0,7.0,75,0.00,,,0.00,weatherlink.com 1.10,2013-04-08 14:10:00,
2013-04-08 09:25:00,70.4,60.0,30.08,SE,146,4.0,9.0,70,0.00,,,0.00,weatherlink.com 1.10,2013-04-08 14:25:00,
2013-04-08 09:55:00,72.4,60.0,30.08,SSE,165,2.0,6.0,65,0.00,,,0.00,weatherlink.com 1.10,2013-04-08 14:55:00,
2013-04-08 10:10:00,73.1,60.0,30.08,NNE,26,0.0,7.0,63,0.00,,,0.00,weatherlink.com 1.10,2013-04-08 15:10:00,
2013-04-08 10:25:00,74.3,59.0,30.09,SE,129,6.0,9.0,59,0.00,,,0.00,weatherlink.com 1.10,2013-04-08 15:25:00,
2013-04-08 10:41:00,74.6,60.0,30.09,SE,143,1.0,8.0,60,0.00,,,0.00,weatherlink.com 1.10,2013-04-08 15:41:00,
2013-04-08 10:56:00,76.9,59.0,30.09,SW,225,5.0,8.0,54,0.00,,,0.00,weatherlink.com 1.10,2013-04-08 15:56:00,
2013-04-08 11:11:00,76.8,60.0,30.09,South,170,3.0,9.0,56,0.00,,,0.00,weatherlink.com 1.10,2013-04-08 16:11:00,
2013-04-08 11:26:00,77.9,59.0,30.09,South,183,2.0,9.0,52,0.00,,,0.00,weatherlink.com 1.10,2013-04-08 16:26:00,
2013-04-08 12:26:00,77.9,61.0,30.07,SE,134,1.0,9.0,56,0.00,,,0.00,weatherlink.com 1.10,2013-04-08 17:26:00,
2013-04-08 12:42:00,78.8,62.0,30.07,SSE,155,2.0,11.0,56,0.00,,,0.00,weatherlink.com 1.10,2013-04-08 17:42:00,
2013-04-08 13:41:00,81.3,61.0,30.05,East,79,4.0,11.0,51,0.00,,,0.00,weatherlink.com 1.10,2013-04-08 18:41:00,
2013-04-08 13:56:00,79.8,61.0,30.04,East,82,9.0,13.0,52,0.00,,,0.00,weatherlink.com 1.10,2013-04-08 18:56:00,
2013-04-08 14:41:00,81.1,61.0,30.02,SSW,207,1.0,11.0,50,0.00,,,0.00,weatherlink.com 1.10,2013-04-08 19:41:00,
2013-04-08 14:56:00,82.1,62.0,30.02,South,173,2.0,9.0,50,0.00,,,0.00,weatherlink.com 1.10,2013-04-08 19:56:00,
2013-04-08 15:11:00,83.1,61.0,30.02,South,186,3.0,8.0,48,0.00,,,0.00,weatherlink.com 1.10,2013-04-08 20:11:00,
2013-04-08 15:26:00,83.5,61.0,30.02,South,189,6.0,11.0,47,0.00,,,0.00,weatherlink.com 1.10,2013-04-08 20:26:00,
2013-04-08 16:11:00,79.8,61.0,30.01,SW,222,3.0,6.0,52,0.00,,,0.00,weatherlink.com 1.10,2013-04-08 21:11:00,
2013-04-08 16:26:00,81.0,61.0,30.01,SSE,166,2.0,12.0,50,0.00,,,0.00,weatherlink.com 1.10,2013-04-08 21:26:00,
2013-04-08 16:41:00,81.8,60.0,30.01,South,188,3.0,10.0,48,0.00,,,0.00,weatherlink.com 1.10,2013-04-08 21:41:00,
2013-04-08 16:56:00,82.1,60.0,30.00,WSW,257,3.0,11.0,48,0.00,,,0.00,weatherlink.com 1.10,2013-04-08 21:56:00,
2013-04-08 17:11:00,82.5,60.0,30.01,SE,134,8.0,10.0,46,0.00,,,0.00,weatherlink.com 1.10,2013-04-08 22:11:00,
2013-04-08 17:26:00,81.9,60.0,30.01,SE,132,3.0,11.0,48,0.00,,,0.00,weatherlink.com 1.10,2013-04-08 22:26:00,
2013-04-08 17:41:00,81.1,60.0,30.01,SSW,193,0.0,13.0,49,0.00,,,0.00,weatherlink.com 1.10,2013-04-08 22:41:00,
2013-04-08 17:56:00,80.2,60.0,30.01,SSE,159,4.0,9.0,51,0.00,,,0.00,weatherlink.com 1.10,2013-04-08 22:56:00,
2013-04-08 18:26:00,77.7,60.0,30.01,SSW,203,1.0,7.0,54,0.00,,,0.00,weatherlink.com 1.10,2013-04-08 23:26:00,
2013-04-08 18:42:00,76.4,59.0,30.02,South,171,0.0,7.0,56,0.00,,,0.00,weatherlink.com 1.10,2013-04-08 23:42:00,
2013-04-08 18:56:00,75.4,59.0,30.02,SSW,203,1.0,7.0,58,0.00,,,0.00,weatherlink.com 1.10,2013-04-08 23:56:00,
2013-04-08 19:11:00,74.3,59.0,30.02,SSW,203,2.0,4.0,60,0.00,,,0.00,weatherlink.com 1.10,2013-04-09 00:11:00,
2013-04-08 19:26:00,72.9,59.0,30.02,South,172,1.0,4.0,62,0.00,,,0.00,weatherlink.com 1.10,2013-04-09 00:26:00,
2013-04-08 19:41:00,71.8,59.0,30.03,SSW,203,2.0,4.0,64,0.00,,,0.00,weatherlink.com 1.10,2013-04-09 00:41:00,
2013-04-08 19:56:00,70.9,59.0,30.03,SSE,163,1.0,3.0,66,0.00,,,0.00,weatherlink.com 1.10,2013-04-09 00:56:00,
2013-04-08 20:26:00,69.1,59.0,30.05,South,191,0.0,4.0,71,0.00,,,0.00,weatherlink.com 1.10,2013-04-09 01:26:00,
2013-04-08 20:41:00,68.5,60.0,30.05,South,177,1.0,2.0,73,0.00,,,0.00,weatherlink.com 1.10,2013-04-09 01:41:00,
2013-04-08 20:56:00,67.3,60.0,30.06,SSW,198,0.0,0.0,76,0.00,,,0.00,weatherlink.com 1.10,2013-04-09 01:56:00,
2013-04-08 21:11:00,65.4,59.0,30.06,SSW,198,0.0,0.0,80,0.00,,,0.00,weatherlink.com 1.10,2013-04-09 02:11:00,
2013-04-08 21:26:00,64.1,59.0,30.07,SSW,198,0.0,0.0,84,0.00,,,0.00,weatherlink.com 1.10,2013-04-09 02:26:00,
2013-04-08 21:41:00,63.3,59.0,30.07,SSW,203,0.0,0.0,86,0.00,,,0.00,weatherlink.com 1.10,2013-04-09 02:41:00,
2013-04-08 21:56:00,62.9,59.0,30.06,SSE,166,0.0,0.0,87,0.00,,,0.00,weatherlink.com 1.10,2013-04-09 02:56:00,
2013-04-08 22:11:00,62.2,59.0,30.06,SE,127,0.0,1.0,89,0.00,,,0.00,weatherlink.com 1.10,2013-04-09 03:11:00,
2013-04-08 22:26:00,62.1,59.0,30.07,South,183,0.0,1.0,89,0.00,,,0.00,weatherlink.com 1.10,2013-04-09 03:26:00,
2013-04-08 22:41:00,61.0,58.0,30.07,South,183,0.0,0.0,90,0.00,,,0.00,weatherlink.com 1.10,2013-04-09 03:41:00,
2013-04-08 22:56:00,60.5,58.0,30.07,South,183,0.0,0.0,92,0.00,,,0.00,weatherlink.com 1.10,2013-04-09 03:56:00,
2013-04-08 23:11:00,60.3,58.0,30.06,ESE,107,0.0,0.0,93,0.00,,,0.00,weatherlink.com 1.10,2013-04-09 04:11:00,
2013-04-08 23:26:00,60.7,59.0,30.06,ESE,114,0.0,1.0,93,0.00,,,0.00,weatherlink.com 1.10,2013-04-09 04:26:00,
2013-04-08 23:42:00,61.0,59.0,30.06,SSE,148,0.0,1.0,93,0.00,,,0.00,weatherlink.com 1.10,2013-04-09 04:42:00,
2013-04-08 23:56:00,60.3,58.0,30.05,South,188,0.0,0.0,93,0.00,,,0.00,weatherlink.com 1.10,2013-04-09 04:56:00,